Left ArrowRight Arrow

21.30694, -157.85833

Hourly Observations for May 24, 2024

Temp ( °F °C ) Dew Point ( °F °C ) Humidity (%) Winds ( mph kmh ) Pressure ( in mb ) Visibility ( mi km ) Precip ( " mm )
12:53 am 00:53 Cloudy 76 24.4 66 18.9 71 71 NE 10 17 30.10 1019 10 16 0.00 0.00
1:53 am 01:53 Mostly Cloudy 75 23.9 65 18.3 71 71 ENE 10 17 30.07 1018 10 16 0.00 0.00
2:53 am 02:53 Mostly Cloudy 75 23.9 65 18.3 71 71 ENE 12 19 30.07 1018 10 16 0.00 0.00
3:53 am 03:53 Partly Cloudy 75 23.9 65 18.3 71 71 ENE 13 20 30.07 1018 10 16 0.00 0.00
4:53 am 04:53 Partly Cloudy 75 23.9 66 18.9 74 74 ENE 10 17 30.08 1019 10 16 0.00 0.00
5:53 am 05:53 Mostly Cloudy 74 23.3 65 18.3 74 74 ENE 10 17 30.09 1019 10 16 0.00 0.00
6:53 am 06:53 Partly Cloudy 75 23.9 65 18.3 71 71 ENE 12 19 30.09 1019 10 16 0.00 0.00
7:53 am 07:53 Partly Cloudy 77 25 65 18.3 66 66 ENE 14 22 30.10 1019 10 16 0.00 0.00
8:53 am 08:53 Partly Cloudy 79 26.1 63 17.2 58 58 E 10 17 30.10 1019 10 16 0.00 0.00
9:53 am 09:53 Partly Cloudy 82 27.8 63 17.2 53 53 E 16 26 30.11 1020 10 16 0.00 0.00
10:53 am 10:53 Partly Cloudy 82 27.8 64 17.8 55 55 ENE 15 24 30.10 1019 10 16 0.00 0.00
11:53 am 11:53 Partly Cloudy 84 28.9 61 16.1 46 46 ENE 20 31 30.10 1019 10 16 0.00 0.00
12:53 pm 12:53 Partly Cloudy 84 28.9 62 16.7 48 48 ENE 16 26 30.09 1019 10 16 0.00 0.00
1:53 pm 13:53 Mostly Sunny 84 28.9 62 16.7 48 48 E 17 28 30.07 1018 10 16 0.00 0.00
2:53 pm 14:53 Partly Cloudy 84 28.9 63 17.2 49 49 ENE 20 31 30.06 1018 10 16 0.00 0.00
3:53 pm 15:53 Mostly Sunny 83 28.3 63 17.2 51 51 ENE 13 20 30.05 1018 10 16 0.00 0.00
4:53 pm 16:53 Partly Cloudy 81 27.2 65 18.3 58 58 E 20 31 30.05 1018 10 16 0.00 0.00
5:53 pm 17:53 Partly Cloudy 79 26.1 64 17.8 60 60 ENE 16 26 30.06 1018 10 16 0.00 0.00
6:53 pm 18:53 Mostly Sunny 77 25 64 17.8 64 64 ENE 14 22 30.07 1018 10 16 0.00 0.00
7:53 pm 19:53 Partly Cloudy 76 24.4 64 17.8 67 67 ENE 13 20 30.09 1019 10 16 0.00 0.00
8:53 pm 20:53 Mostly Clear 76 24.4 65 18.3 69 69 ENE 10 17 30.11 1020 10 16 0.00 0.00
9:53 pm 21:53 Partly Cloudy 76 24.4 65 18.3 69 69 ENE 8 13 30.11 1020 10 16 0.00 0.00
10:53 pm 22:53 Mostly Cloudy 75 23.9 66 18.9 74 74 ENE 10 17 30.11 1020 10 16 0.00 0.00
11:53 pm 23:53 Mostly Cloudy 75 23.9 66 18.9 74 74 ENE 9 15 30.10 1019 10 16 0.00 0.00

Powered by Vaisala Xweather